| time (UTC) | temp F | wind direction | speed MPH | gust MPH | rain 1hr in | rain 24hr in | rain mn in | humidity % | barometer mb |
| 20260906194641 | 70 | 132 | 0.0 | 1.0 | 0.00 | 0.00 | 0.00 | 62 | 1019.8 |
| 20260906194139 | 70 | 132 | 0.0 | 1.0 | 0.00 | 0.00 | 0.00 | 62 | 1020.0 |
| 20260906193641 | 70 | 132 | 0.0 | 0.0 | 0.00 | 0.00 | 0.00 | 62 | 1020.0 |
| 20260906193139 | 70 | 132 | 0.0 | 0.0 | 0.00 | 0.00 | 0.00 | 61 | 1020.1 |
| 20260906192643 | 70 | 132 | 0.0 | 0.0 | 0.00 | 0.00 | 0.00 | 61 | 1020.1 |
| 20260906192141 | 70 | 132 | 0.0 | 2.0 | 0.00 | 0.00 | 0.00 | 61 | 1019.9 |
| 20260906191631 | 70 | 132 | 0.0 | 2.0 | 0.00 | 0.00 | 0.00 | 61 | 1020.0 |
| 20260906191133 | 70 | 132 | 0.0 | 1.0 | 0.00 | 0.00 | 0.00 | 61 | 1020.1 |
| 20260906190637 | 70 | 132 | 0.0 | 1.0 | 0.00 | 0.00 | 0.00 | 61 | 1020.1 |
| 20260906190135 | 70 | 132 | 0.0 | 0.0 | 0.00 | 0.00 | 0.00 | 62 | 1020.1 |
| 20260906185631 | 70 | 132 | 0.0 | 1.0 | 0.00 | 0.00 | 0.00 | 61 | 1020.2 |
| 20260906185441 | 70 | 132 | 0.0 | 1.0 | 0.00 | 0.00 | 0.00 | 60 | 1020.2 |
| 20260906184631 | 71 | 132 | 0.0 | 1.0 | 0.00 | 0.00 | 0.00 | 61 | 1020.3 |
| 20260906184132 | 71 | 132 | 0.0 | 1.0 | 0.00 | 0.00 | 0.00 | 60 | 1020.3 |
| 20260906183618 | 71 | 132 | 0.0 | 1.0 | 0.00 | 0.00 | 0.00 | 59 | 1020.4 |
| 20260906183119 | 71 | 132 | 0.0 | 1.0 | 0.00 | 0.00 | 0.00 | 59 | 1020.4 |
| 20260906182612 | 71 | 132 | 0.0 | 2.0 | 0.00 | 0.00 | 0.00 | 59 | 1020.3 |
| 20260906182114 | 72 | 132 | 0.0 | 2.0 | 0.00 | 0.00 | 0.00 | 58 | 1020.2 |
| 20260906181916 | 72 | 132 | 0.0 | 1.0 | 0.00 | 0.00 | 0.00 | 58 | 1020.3 |
| 20260906181547 | 72 | 132 | 0.0 | 1.0 | 0.00 | 0.00 | 0.00 | 58 | 1020.4 |
| 20260906180557 | 72 | 132 | 0.0 | 1.0 | 0.00 | 0.00 | 0.00 | 58 | 1020.5 |
| 20260906180059 | 73 | 132 | 0.0 | 0.0 | 0.00 | 0.00 | 0.00 | 57 | 1020.7 |
| 20260906175845 | 73 | 132 | 0.0 | 2.0 | 0.00 | 0.00 | 0.00 | 56 | 1020.8 |
| 20260906175033 | 73 | 132 | 0.0 | 2.0 | 0.00 | 0.00 | 0.00 | 56 | 1020.6 |
| 20260906174534 | 73 | 132 | 0.0 | 1.0 | 0.00 | 0.00 | 0.00 | 55 | 1020.7 |
| 20260906174035 | 74 | 132 | 0.0 | 0.0 | 0.00 | 0.00 | 0.00 | 56 | 1020.7 |
| 20260906173536 | 74 | 132 | 0.0 | 1.0 | 0.00 | 0.00 | 0.00 | 55 | 1020.9 |
| 20260906173031 | 74 | 132 | 0.0 | 1.0 | 0.00 | 0.00 | 0.00 | 55 | 1021.0 |
| 20260906172537 | 74 | 132 | 0.0 | 1.0 | 0.00 | 0.00 | 0.00 | 54 | 1021.0 |
| 20260906172030 | 74 | 132 | 0.0 | 1.0 | 0.00 | 0.00 | 0.00 | 53 | 1021.0 |
| 20260906171531 | 74 | 132 | 0.0 | 2.0 | 0.00 | 0.00 | 0.00 | 53 | 1021.1 |
| 20260906171033 | 74 | 132 | 0.0 | 2.0 | 0.00 | 0.00 | 0.00 | 52 | 1021.1 |
| 20260906170532 | 75 | 211 | 0.0 | 3.0 | 0.00 | 0.00 | 0.00 | 52 | 1021.0 |
| 20260906170032 | 75 | 152 | 1.0 | 3.0 | 0.00 | 0.00 | 0.00 | 51 | 1021.1 |
| 20260906165535 | 75 | 154 | 1.0 | 4.0 | 0.00 | 0.00 | 0.00 | 51 | 1021.1 |
| 20260906165031 | 76 | 188 | 1.0 | 5.0 | 0.00 | 0.00 | 0.00 | 50 | 1021.2 |
| 20260906164529 | 76 | 180 | 1.0 | 5.0 | 0.00 | 0.00 | 0.00 | 50 | 1021.3 |
| 20260906164030 | 76 | 191 | 1.0 | 5.0 | 0.00 | 0.00 | 0.00 | 50 | 1021.6 |
| 20260906163839 | 76 | 191 | 2.0 | 5.0 | 0.00 | 0.00 | 0.00 | 50 | 1021.6 |
| 20260906163034 | 76 | 160 | 2.0 | 8.0 | 0.00 | 0.00 | 0.00 | 49 | 1021.6 |
| 20260906162523 | 76 | 175 | 2.0 | 8.0 | 0.00 | 0.00 | 0.00 | 48 | 1021.5 |
| 20260906162034 | 77 | 161 | 1.0 | 8.0 | 0.00 | 0.00 | 0.00 | 48 | 1021.4 |
| 20260906161521 | 77 | 18 | 2.0 | 9.0 | 0.00 | 0.00 | 0.00 | 48 | 1021.4 |
| 20260906161339 | 77 | 66 | 2.0 | 9.0 | 0.00 | 0.00 | 0.00 | 48 | 1021.3 |
| 20260906160541 | 77 | 148 | 2.0 | 6.0 | 0.00 | 0.00 | 0.00 | 48 | 1021.4 |
| 20260906160029 | 76 | 265 | 3.0 | 7.0 | 0.00 | 0.00 | 0.00 | 48 | 1021.4 |
| 20260906155522 | 77 | 198 | 2.0 | 7.0 | 0.00 | 0.00 | 0.00 | 48 | 1021.5 |
| 20260906155022 | 77 | 170 | 2.0 | 6.0 | 0.00 | 0.00 | 0.00 | 48 | 1021.6 |
| 20260906154520 | 77 | 205 | 2.0 | 6.0 | 0.00 | 0.00 | 0.00 | 48 | 1021.6 |
| 20260906154024 | 77 | 169 | 2.0 | 6.0 | 0.00 | 0.00 | 0.00 | 48 | 1021.6 |
| 20260906153519 | 77 | 158 | 2.0 | 6.0 | 0.00 | 0.00 | 0.00 | 48 | 1021.7 |
| 20260906153019 | 77 | 209 | 2.0 | 6.0 | 0.00 | 0.00 | 0.00 | 47 | 1021.7 |
| 20260906152521 | 78 | 165 | 2.0 | 6.0 | 0.00 | 0.00 | 0.00 | 48 | 1021.8 |
| 20260906152022 | 77 | 160 | 2.0 | 7.0 | 0.00 | 0.00 | 0.00 | 47 | 1021.8 |
| 20260906151521 | 77 | 130 | 1.0 | 7.0 | 0.00 | 0.00 | 0.00 | 47 | 1021.9 |
| 20260906151023 | 78 | 129 | 1.0 | 6.0 | 0.00 | 0.00 | 0.00 | 46 | 1021.7 |
| 20260906150520 | 78 | 120 | 2.0 | 6.0 | 0.00 | 0.00 | 0.00 | 47 | 1021.9 |
| 20260906150033 | 77 | 117 | 3.0 | 11.0 | 0.00 | 0.00 | 0.00 | 47 | 1021.9 |
| 20260906145513 | 77 | 205 | 2.0 | 11.0 | 0.00 | 0.00 | 0.00 | 47 | 1021.9 |
| 20260906145020 | 77 | 198 | 2.0 | 7.0 | 0.00 | 0.00 | 0.00 | 48 | 1021.9 |
| 20260906144517 | 77 | 202 | 2.0 | 7.0 | 0.00 | 0.00 | 0.00 | 47 | 1022.0 |
| 20260906144016 | 77 | 153 | 2.0 | 8.0 | 0.00 | 0.00 | 0.00 | 47 | 1022.1 |
| 20260906143515 | 76 | 164 | 3.0 | 8.0 | 0.00 | 0.00 | 0.00 | 48 | 1022.1 |
| 20260906143018 | 77 | 123 | 3.0 | 8.0 | 0.00 | 0.00 | 0.00 | 46 | 1022.1 |
| 20260906142515 | 77 | 177 | 1.0 | 5.0 | 0.00 | 0.00 | 0.00 | 46 | 1022.1 |
| 20260906142007 | 77 | 53 | 1.0 | 8.0 | 0.00 | 0.00 | 0.00 | 46 | 1022.1 |
| 20260906141839 | 78 | 60 | 3.0 | 10.0 | 0.00 | 0.00 | 0.00 | 46 | 1022.3 |
| 20260906141030 | 77 | 211 | 3.0 | 10.0 | 0.00 | 0.00 | 0.00 | 44 | 1022.3 |
| 20260906140829 | 78 | 161 | 3.0 | 6.0 | 0.00 | 0.00 | 0.00 | 47 | 1022.3 |
| 20260906140234 | 77 | 187 | 2.0 | 7.0 | 0.00 | 0.00 | 0.00 | 45 | 1022.4 |
| 20260906140126 | 77 | 173 | 3.0 | 7.0 | 0.00 | 0.00 | 0.00 | 47 | 1022.4 |
| 20260906135008 | 77 | 189 | 2.0 | 5.0 | 0.00 | 0.00 | 0.00 | 46 | 1022.4 |
| 20260906134517 | 77 | 163 | 2.0 | 7.0 | 0.00 | 0.00 | 0.00 | 47 | 1022.5 |
| 20260906134000 | 76 | 20 | 3.0 | 8.0 | 0.00 | 0.00 | 0.00 | 46 | 1022.5 |
| 20260906133500 | 76 | 168 | 2.0 | 8.0 | 0.00 | 0.00 | 0.00 | 46 | 1022.6 |
| 20260906133154 | 77 | 244 | 2.0 | 8.0 | 0.00 | 0.00 | 0.00 | 46 | 1022.8 |
| 20260906133105 | 77 | 101 | 2.0 | 6.0 | 0.00 | 0.00 | 0.00 | 46 | 1022.8 |
| 20260906132340 | 76 | 196 | 2.0 | 8.0 | 0.00 | 0.00 | 0.00 | 47 | 1022.8 |
| 20260906131458 | 76 | 163 | 2.0 | 9.0 | 0.00 | 0.00 | 0.00 | 47 | 1022.9 |
| 20260906131009 | 76 | 194 | 2.0 | 9.0 | 0.00 | 0.00 | 0.00 | 46 | 1023.0 |
| 20260906130829 | 75 | 119 | 3.0 | 7.0 | 0.00 | 0.00 | 0.00 | 48 | 1023.0 |
| 20260906130421 | 76 | 292 | 2.0 | 10.0 | 0.00 | 0.00 | 0.00 | 48 | 1023.1 |
| 20260906130416 | 76 | 174 | 3.0 | 7.0 | 0.00 | 0.00 | 0.00 | 47 | 1023.0 |
| 20260906130408 | 76 | 173 | 2.0 | 7.0 | 0.00 | 0.00 | 0.00 | 46 | 1023.1 |
| 20260906124458 | 75 | 160 | 3.0 | 10.0 | 0.00 | 0.00 | 0.00 | 48 | 1023.2 |
| 20260906123952 | 75 | 95 | 3.0 | 7.0 | 0.00 | 0.00 | 0.00 | 47 | 1023.4 |
| 20260906123451 | 74 | 96 | 3.0 | 9.0 | 0.00 | 0.00 | 0.00 | 49 | 1023.3 |
| 20260906122949 | 74 | 68 | 4.0 | 10.0 | 0.00 | 0.00 | 0.00 | 49 | 1023.3 |
| 20260906122450 | 74 | 196 | 3.0 | 10.0 | 0.00 | 0.00 | 0.00 | 49 | 1023.3 |
| 20260906121948 | 74 | 196 | 3.0 | 8.0 | 0.00 | 0.00 | 0.00 | 48 | 1023.3 |
| 20260906121447 | 74 | 161 | 3.0 | 9.0 | 0.00 | 0.00 | 0.00 | 47 | 1023.3 |
| 20260906120947 | 74 | 223 | 3.0 | 9.0 | 0.00 | 0.00 | 0.00 | 51 | 1023.6 |
| 20260906120449 | 73 | 192 | 3.0 | 10.0 | 0.00 | 0.00 | 0.00 | 49 | 1023.7 |
| 20260906115946 | 73 | 205 | 3.0 | 10.0 | 0.00 | 0.00 | 0.00 | 49 | 1023.7 |
| 20260906115447 | 74 | 55 | 2.0 | 7.0 | 0.00 | 0.00 | 0.00 | 49 | 1023.8 |
| 20260906114945 | 74 | 236 | 3.0 | 14.0 | 0.00 | 0.00 | 0.00 | 50 | 1023.8 |
| 20260906114443 | 74 | 31 | 4.0 | 14.0 | 0.00 | 0.00 | 0.00 | 51 | 1023.9 |
| 20260906114318 | 73 | 229 | 4.0 | 9.0 | 0.00 | 0.00 | 0.00 | 50 | 1024.0 |
| 20260906113443 | 73 | 219 | 3.0 | 9.0 | 0.00 | 0.00 | 0.00 | 51 | 1024.0 |
| 20260906112942 | 73 | 238 | 2.0 | 8.0 | 0.00 | 0.00 | 0.00 | 50 | 1024.2 |
| 20260906112441 | 72 | 68 | 2.0 | 9.0 | 0.00 | 0.00 | 0.00 | 52 | 1024.1 |
| 20260906111941 | 72 | 150 | 3.0 | 9.0 | 0.00 | 0.00 | 0.00 | 53 | 1024.2 |
| 20260906111442 | 72 | 184 | 3.0 | 8.0 | 0.00 | 0.00 | 0.00 | 52 | 1024.2 |
| 20260906110939 | 73 | 132 | 3.0 | 9.0 | 0.00 | 0.00 | 0.00 | 51 | 1024.2 |
| 20260906110816 | 73 | 189 | 2.0 | 9.0 | 0.00 | 0.00 | 0.00 | 52 | 1024.3 |
| 20260906105937 | 73 | 355 | 3.0 | 13.0 | 0.00 | 0.00 | 0.00 | 54 | 1024.3 |
| 20260906105442 | 71 | 144 | 4.0 | 13.0 | 0.00 | 0.00 | 0.00 | 52 | 1024.3 |
| 20260906104939 | 71 | 167 | 3.0 | 8.0 | 0.00 | 0.00 | 0.00 | 54 | 1024.5 |
| 20260906104439 | 71 | 194 | 3.0 | 8.0 | 0.00 | 0.00 | 0.00 | 54 | 1024.5 |
| 20260906103938 | 71 | 146 | 3.0 | 10.0 | 0.00 | 0.00 | 0.00 | 54 | 1024.6 |
| 20260906103436 | 71 | 122 | 3.0 | 10.0 | 0.00 | 0.00 | 0.00 | 54 | 1024.6 |
| 20260906102941 | 71 | 144 | 3.0 | 8.0 | 0.00 | 0.00 | 0.00 | 53 | 1024.7 |
| 20260906102440 | 70 | 162 | 2.0 | 8.0 | 0.00 | 0.00 | 0.00 | 55 | 1024.8 |
| 20260906101941 | 70 | 209 | 3.0 | 10.0 | 0.00 | 0.00 | 0.00 | 56 | 1024.8 |
| 20260906101437 | 69 | 123 | 4.0 | 10.0 | 0.00 | 0.00 | 0.00 | 55 | 1025.0 |
| 20260906101310 | 69 | 211 | 4.0 | 12.0 | 0.00 | 0.00 | 0.00 | 55 | 1024.9 |
| 20260906100438 | 69 | 49 | 4.0 | 12.0 | 0.00 | 0.00 | 0.00 | 55 | 1025.1 |
| 20260906095937 | 69 | 179 | 3.0 | 10.0 | 0.00 | 0.00 | 0.00 | 55 | 1025.1 |
| 20260906095435 | 69 | 140 | 3.0 | 10.0 | 0.00 | 0.00 | 0.00 | 57 | 1025.2 |
| 20260906095313 | 69 | 63 | 2.0 | 7.0 | 0.00 | 0.00 | 0.00 | 59 | 1025.0 |
| 20260906094433 | 69 | 161 | 3.0 | 9.0 | 0.00 | 0.00 | 0.00 | 60 | 1025.3 |
| 20260906093934 | 69 | 205 | 3.0 | 9.0 | 0.00 | 0.00 | 0.00 | 60 | 1025.2 |
| 20260906093431 | 68 | 169 | 2.0 | 8.0 | 0.00 | 0.00 | 0.00 | 61 | 1025.4 |
| 20260906093249 | 68 | 237 | 2.0 | 11.0 | 0.00 | 0.00 | 0.00 | 61 | 1025.4 |
| 20260906092431 | 67 | 192 | 3.0 | 11.0 | 0.00 | 0.00 | 0.00 | 62 | 1025.3 |
| 20260906091931 | 67 | 198 | 3.0 | 8.0 | 0.00 | 0.00 | 0.00 | 62 | 1025.5 |
| 20260906091633 | 66 | 173 | 3.0 | 10.0 | 0.00 | 0.00 | 0.00 | 65 | 1025.6 |
| 20260906091545 | 67 | 207 | 3.0 | 10.0 | 0.00 | 0.00 | 0.00 | 64 | 1025.6 |
| 20260906090431 | 65 | 177 | 2.0 | 10.0 | 0.00 | 0.00 | 0.00 | 69 | 1025.6 |
| 20260906085936 | 64 | 71 | 2.0 | 7.0 | 0.00 | 0.00 | 0.00 | 71 | 1025.6 |
| 20260906085431 | 63 | 188 | 2.0 | 7.0 | 0.00 | 0.00 | 0.00 | 72 | 1025.6 |
| 20260906084933 | 63 | 194 | 1.0 | 4.0 | 0.00 | 0.00 | 0.00 | 74 | 1025.7 |
| 20260906084431 | 62 | 153 | 2.0 | 6.0 | 0.00 | 0.00 | 0.00 | 75 | 1025.6 |
| 20260906084256 | 62 | 158 | 2.0 | 8.0 | 0.00 | 0.00 | 0.00 | 76 | 1025.6 |
| 20260906083433 | 62 | 171 | 2.0 | 8.0 | 0.00 | 0.00 | 0.00 | 77 | 1025.6 |
| 20260906082928 | 61 | 216 | 2.0 | 8.0 | 0.00 | 0.00 | 0.00 | 79 | 1025.6 |
| 20260906082428 | 61 | 175 | 3.0 | 9.0 | 0.00 | 0.00 | 0.00 | 80 | 1025.5 |
| 20260906081928 | 60 | 111 | 2.0 | 9.0 | 0.00 | 0.00 | 0.00 | 82 | 1025.6 |
| 20260906081430 | 60 | 190 | 2.0 | 7.0 | 0.00 | 0.00 | 0.00 | 83 | 1025.6 |
| 20260906080930 | 59 | 207 | 2.0 | 7.0 | 0.00 | 0.00 | 0.00 | 85 | 1025.7 |
| 20260906080429 | 59 | 207 | 2.0 | 7.0 | 0.00 | 0.00 | 0.00 | 86 | 1025.7 |
| 20260906075926 | 58 | 176 | 2.0 | 6.0 | 0.00 | 0.00 | 0.00 | 88 | 1025.7 |
| 20260906075424 | 58 | 146 | 2.0 | 8.0 | 0.00 | 0.00 | 0.00 | 89 | 1025.8 |
| 20260906075244 | 57 | 142 | 2.0 | 8.0 | 0.00 | 0.00 | 0.00 | 89 | 1025.8 |
| 20260906074423 | 57 | 195 | 3.0 | 7.0 | 0.00 | 0.00 | 0.00 | 90 | 1025.8 |
| 20260906073922 | 56 | 205 | 2.0 | 7.0 | 0.00 | 0.00 | 0.00 | 91 | 1025.9 |
| 20260906073422 | 56 | 156 | 1.0 | 5.0 | 0.00 | 0.00 | 0.00 | 91 | 1025.8 |
| 20260906072921 | 55 | 208 | 1.0 | 3.0 | 0.00 | 0.00 | 0.00 | 91 | 1025.6 |
| 20260906072614 | 55 | 134 | 1.0 | 4.0 | 0.00 | 0.00 | 0.00 | 91 | 1025.8 |
| 20260906072530 | 55 | 200 | 1.0 | 4.0 | 0.00 | 0.00 | 0.00 | 91 | 1025.8 |
| 20260906071428 | 54 | 194 | 1.0 | 3.0 | 0.00 | 0.00 | 0.00 | 91 | 1025.8 |
| 20260906070912 | 54 | 178 | 0.0 | 3.0 | 0.00 | 0.00 | 0.00 | 91 | 1025.8 |
| 20260906070408 | 54 | 178 | 0.0 | 1.0 | 0.00 | 0.00 | 0.00 | 91 | 1025.9 |
| 20260906065908 | 54 | 178 | 0.0 | 1.0 | 0.00 | 0.00 | 0.00 | 91 | 1025.9 |
| 20260906065414 | 54 | 178 | 0.0 | 2.0 | 0.00 | 0.00 | 0.00 | 91 | 1025.9 |
| 20260906064907 | 53 | 178 | 1.0 | 2.0 | 0.00 | 0.00 | 0.00 | 91 | 1025.9 |
| 20260906064403 | 53 | 178 | 1.0 | 2.0 | 0.00 | 0.00 | 0.00 | 91 | 1025.8 |
| 20260906063904 | 53 | 178 | 1.0 | 2.0 | 0.00 | 0.00 | 0.00 | 91 | 1025.8 |
| 20260906063353 | 53 | 178 | 1.0 | 2.0 | 0.00 | 0.00 | 0.00 | 91 | 1025.9 |
| 20260906062853 | 53 | 178 | 1.0 | 2.0 | 0.00 | 0.00 | 0.00 | 91 | 1025.9 |
| 20260906062354 | 53 | 178 | 1.0 | 2.0 | 0.00 | 0.00 | 0.00 | 91 | 1025.7 |
| 20260906061847 | 53 | 178 | 1.0 | 3.0 | 0.00 | 0.00 | 0.00 | 91 | 1025.7 |
| 20260906061722 | 53 | 178 | 1.0 | 3.0 | 0.00 | 0.00 | 0.00 | 91 | 1025.7 |
| 20260906060842 | 53 | 178 | 1.0 | 4.0 | 0.00 | 0.00 | 0.00 | 91 | 1025.8 |
| 20260906060655 | 53 | 178 | 1.0 | 4.0 | 0.00 | 0.00 | 0.00 | 91 | 1025.8 |
| 20260906055840 | 52 | 157 | 1.0 | 3.0 | 0.00 | 0.00 | 0.00 | 91 | 1025.8 |
| 20260906055339 | 52 | 157 | 1.0 | 3.0 | 0.00 | 0.00 | 0.00 | 91 | 1025.8 |
| 20260906054836 | 52 | 180 | 1.0 | 4.0 | 0.00 | 0.00 | 0.00 | 91 | 1025.7 |
| 20260906054338 | 52 | 162 | 1.0 | 4.0 | 0.00 | 0.00 | 0.00 | 91 | 1025.6 |
| 20260906053836 | 51 | 165 | 1.0 | 4.0 | 0.00 | 0.00 | 0.00 | 90 | 1025.7 |
| 20260906053335 | 51 | 186 | 0.0 | 3.0 | 0.00 | 0.00 | 0.00 | 90 | 1025.6 |
| 20260906053152 | 51 | 188 | 0.0 | 3.0 | 0.00 | 0.00 | 0.00 | 90 | 1025.5 |
| 20260906052648 | 51 | 186 | 0.0 | 1.0 | 0.00 | 0.00 | 0.00 | 90 | 1025.5 |
| 20260906051833 | 51 | 186 | 0.0 | 2.0 | 0.00 | 0.00 | 0.00 | 90 | 1025.4 |
| 20260906051333 | 51 | 186 | 0.0 | 2.0 | 0.00 | 0.00 | 0.00 | 90 | 1025.6 |
| 20260906050834 | 51 | 196 | 0.0 | 2.0 | 0.00 | 0.00 | 0.00 | 90 | 1025.5 |
| 20260906050659 | 51 | 196 | 1.0 | 2.0 | 0.00 | 0.00 | 0.00 | 90 | 1025.5 |
| 20260906045835 | 51 | 187 | 0.0 | 2.0 | 0.00 | 0.00 | 0.00 | 90 | 1025.6 |
| 20260906045651 | 51 | 197 | 0.0 | 2.0 | 0.00 | 0.00 | 0.00 | 90 | 1025.5 |
| 20260906044830 | 51 | 200 | 0.0 | 1.0 | 0.00 | 0.00 | 0.00 | 90 | 1025.6 |
| 20260906044319 | 51 | 200 | 0.0 | 1.0 | 0.00 | 0.00 | 0.00 | 90 | 1025.6 |
| 20260906043810 | 51 | 200 | 0.0 | 2.0 | 0.00 | 0.00 | 0.00 | 89 | 1025.5 |
| 20260906043315 | 51 | 200 | 0.0 | 2.0 | 0.00 | 0.00 | 0.00 | 89 | 1025.6 |
| 20260906042812 | 51 | 200 | 0.0 | 1.0 | 0.00 | 0.00 | 0.00 | 89 | 1025.8 |
| 20260906042313 | 51 | 200 | 0.0 | 1.0 | 0.00 | 0.00 | 0.00 | 89 | 1025.8 |
| 20260906041810 | 51 | 200 | 0.0 | 1.0 | 0.00 | 0.00 | 0.00 | 89 | 1025.8 |
| 20260906041311 | 51 | 224 | 0.0 | 1.0 | 0.00 | 0.00 | 0.00 | 89 | 1025.8 |
| 20260906040812 | 51 | 224 | 0.0 | 2.0 | 0.00 | 0.00 | 0.00 | 89 | 1025.9 |
| 20260906040310 | 51 | 224 | 0.0 | 2.0 | 0.00 | 0.00 | 0.00 | 89 | 1026.0 |
| 20260906035813 | 51 | 271 | 0.0 | 1.0 | 0.00 | 0.00 | 0.00 | 89 | 1025.9 |
| 20260906035307 | 51 | 290 | 0.0 | 1.0 | 0.00 | 0.00 | 0.00 | 89 | 1025.9 |
| 20260906035137 | 51 | 290 | 0.0 | 0.0 | 0.00 | 0.00 | 0.00 | 89 | 1026.1 |
| 20260906034315 | 51 | 290 | 0.0 | 0.0 | 0.00 | 0.00 | 0.00 | 89 | 1026.1 |
| 20260906033813 | 51 | 290 | 0.0 | 0.0 | 0.00 | 0.00 | 0.00 | 89 | 1026.1 |
| 20260906033310 | 51 | 290 | 0.0 | 0.0 | 0.00 | 0.00 | 0.00 | 89 | 1026.2 |
| 20260906032808 | 51 | 290 | 0.0 | 0.0 | 0.00 | 0.00 | 0.00 | 89 | 1026.0 |
| 20260906032309 | 51 | 290 | 0.0 | 0.0 | 0.00 | 0.00 | 0.00 | 89 | 1026.0 |
| 20260906031812 | 51 | 290 | 0.0 | 0.0 | 0.00 | 0.00 | 0.00 | 89 | 1026.0 |
| 20260906031309 | 51 | 290 | 0.0 | 0.0 | 0.00 | 0.00 | 0.00 | 89 | 1026.1 |
| 20260906030804 | 51 | 290 | 0.0 | 0.0 | 0.00 | 0.00 | 0.00 | 88 | 1026.0 |
| 20260906030308 | 51 | 290 | 0.0 | 0.0 | 0.00 | 0.00 | 0.00 | 88 | 1025.8 |
| 20260906025812 | 51 | 290 | 0.0 | 1.0 | 0.00 | 0.00 | 0.00 | 88 | 1025.8 |
| 20260906025314 | 51 | 290 | 0.0 | 1.0 | 0.00 | 0.00 | 0.00 | 88 | 1025.8 |
| 20260906024815 | 51 | 290 | 0.0 | 1.0 | 0.00 | 0.00 | 0.00 | 88 | 1026.0 |
| 20260906024313 | 52 | 290 | 0.0 | 1.0 | 0.00 | 0.00 | 0.00 | 88 | 1026.1 |
| 20260906023803 | 52 | 290 | 0.0 | 0.0 | 0.00 | 0.00 | 0.00 | 88 | 1026.1 |
| 20260906023258 | 52 | 290 | 0.0 | 1.0 | 0.00 | 0.00 | 0.00 | 88 | 1026.4 |
| 20260906022755 | 52 | 290 | 0.0 | 1.0 | 0.00 | 0.00 | 0.00 | 88 | 1026.5 |
| 20260906022237 | 52 | 290 | 0.0 | 0.0 | 0.00 | 0.00 | 0.00 | 88 | 1026.5 |
| 20260906021736 | 52 | 290 | 0.0 | 0.0 | 0.00 | 0.00 | 0.00 | 88 | 1026.5 |
| 20260906021236 | 52 | 290 | 0.0 | 0.0 | 0.00 | 0.00 | 0.00 | 88 | 1026.8 |
| 20260906020736 | 52 | 290 | 0.0 | 1.0 | 0.00 | 0.00 | 0.00 | 88 | 1026.6 |
| 20260906020236 | 52 | 290 | 0.0 | 1.0 | 0.00 | 0.00 | 0.00 | 88 | 1026.8 |
| 20260906015736 | 52 | 290 | 0.0 | 1.0 | 0.00 | 0.00 | 0.00 | 88 | 1026.9 |
| 20260906015238 | 52 | 290 | 0.0 | 0.0 | 0.00 | 0.00 | 0.00 | 87 | 1026.6 |
| 20260906014735 | 52 | 290 | 0.0 | 1.0 | 0.00 | 0.00 | 0.00 | 88 | 1026.4 |
| 20260906014234 | 52 | 290 | 0.0 | 1.0 | 0.00 | 0.00 | 0.00 | 88 | 1026.4 |
| 20260906013737 | 52 | 290 | 0.0 | 2.0 | 0.00 | 0.00 | 0.00 | 87 | 1026.3 |
| 20260906013236 | 53 | 290 | 0.0 | 2.0 | 0.00 | 0.00 | 0.00 | 87 | 1026.1 |
| 20260906012731 | 53 | 290 | 0.0 | 0.0 | 0.00 | 0.00 | 0.00 | 87 | 1026.2 |
| 20260906012233 | 53 | 290 | 0.0 | 0.0 | 0.00 | 0.00 | 0.00 | 87 | 1026.1 |
| 20260906011737 | 53 | 290 | 0.0 | 0.0 | 0.00 | 0.00 | 0.00 | 87 | 1026.1 |
| 20260906011234 | 53 | 290 | 0.0 | 1.0 | 0.00 | 0.00 | 0.00 | 87 | 1026.1 |
| 20260906010733 | 53 | 290 | 0.0 | 1.0 | 0.00 | 0.00 | 0.00 | 87 | 1026.2 |
| 20260906010452 | 53 | 290 | 0.0 | 0.0 | 0.00 | 0.00 | 0.00 | 87 | 1026.2 |
| 20260906010405 | 53 | 290 | 0.0 | 0.0 | 0.00 | 0.00 | 0.00 | 87 | 1026.2 |
| 20260906005222 | 53 | 290 | 0.0 | 0.0 | 0.00 | 0.00 | 0.00 | 86 | 1026.2 |
| 20260906004717 | 53 | 290 | 0.0 | 0.0 | 0.00 | 0.00 | 0.00 | 86 | 1026.3 |
| 20260906004207 | 53 | 290 | 0.0 | 0.0 | 0.00 | 0.00 | 0.00 | 86 | 1026.4 |
| 20260906003711 | 53 | 290 | 0.0 | 0.0 | 0.00 | 0.00 | 0.00 | 86 | 1026.3 |
| 20260906003152 | 53 | 290 | 0.0 | 1.0 | 0.00 | 0.00 | 0.00 | 86 | 1026.4 |
| 20260906002651 | 53 | 290 | 0.0 | 1.0 | 0.00 | 0.00 | 0.00 | 86 | 1026.3 |
| 20260906002146 | 53 | 290 | 0.0 | 0.0 | 0.00 | 0.00 | 0.00 | 86 | 1026.1 |
| 20260906001639 | 53 | 290 | 0.0 | 1.0 | 0.00 | 0.00 | 0.00 | 86 | 1026.1 |
| 20260906001139 | 53 | 290 | 0.0 | 1.0 | 0.00 | 0.00 | 0.00 | 86 | 1026.2 |
| 20260906000636 | 53 | 290 | 0.0 | 1.0 | 0.00 | 0.00 | 0.00 | 86 | 1026.2 |
| 20260906000136 | 54 | 290 | 0.0 | 0.0 | 0.00 | 0.00 | 0.00 | 86 | 1026.2 |
| 20260905235633 | 54 | 290 | 0.0 | 0.0 | 0.00 | 0.00 | 0.00 | 86 | 1026.2 |
| 20260905235131 | 54 | 290 | 0.0 | 0.0 | 0.00 | 0.00 | 0.00 | 86 | 1026.2 |
| 20260905234941 | 54 | 290 | 0.0 | 1.0 | 0.00 | 0.00 | 0.00 | 85 | 1026.2 |
| 20260905234455 | 54 | 290 | 0.0 | 1.0 | 0.00 | 0.00 | 0.00 | 85 | 1026.2 |
| 20260905233634 | 54 | 290 | 0.0 | 0.0 | 0.00 | 0.00 | 0.00 | 85 | 1026.1 |
| 20260905233132 | 54 | 290 | 0.0 | 0.0 | 0.00 | 0.00 | 0.00 | 85 | 1026.1 |
| 20260905232631 | 54 | 290 | 0.0 | 1.0 | 0.00 | 0.00 | 0.00 | 85 | 1026.1 |
| 20260905232445 | 55 | 290 | 0.0 | 1.0 | 0.00 | 0.00 | 0.00 | 85 | 1026.1 |
| 20260905231635 | 55 | 290 | 0.0 | 1.0 | 0.00 | 0.00 | 0.00 | 85 | 1026.0 |
| 20260905231134 | 55 | 290 | 0.0 | 0.0 | 0.00 | 0.00 | 0.00 | 85 | 1025.9 |
| 20260905230632 | 55 | 290 | 0.0 | 0.0 | 0.00 | 0.00 | 0.00 | 85 | 1025.9 |
| 20260905230134 | 55 | 290 | 0.0 | 0.0 | 0.00 | 0.00 | 0.00 | 85 | 1025.9 |
| 20260905225631 | 55 | 290 | 0.0 | 0.0 | 0.00 | 0.00 | 0.00 | 84 | 1025.9 |
| 20260905225135 | 55 | 290 | 0.0 | 0.0 | 0.00 | 0.00 | 0.00 | 84 | 1026.1 |
| 20260905224634 | 55 | 290 | 0.0 | 2.0 | 0.00 | 0.00 | 0.00 | 84 | 1026.0 |
| 20260905224447 | 55 | 290 | 0.0 | 2.0 | 0.00 | 0.00 | 0.00 | 84 | 1026.0 |
| 20260905223634 | 55 | 332 | 0.0 | 0.0 | 0.00 | 0.00 | 0.00 | 84 | 1025.9 |
| 20260905223132 | 56 | 332 | 0.0 | 0.0 | 0.00 | 0.00 | 0.00 | 84 | 1026.0 |
| 20260905222633 | 55 | 332 | 0.0 | 0.0 | 0.00 | 0.00 | 0.00 | 83 | 1025.9 |
| 20260905222131 | 56 | 332 | 0.0 | 1.0 | 0.00 | 0.00 | 0.00 | 83 | 1025.9 |
| 20260905221634 | 56 | 332 | 0.0 | 1.0 | 0.00 | 0.00 | 0.00 | 83 | 1025.9 |
| 20260905221448 | 56 | 332 | 0.0 | 0.0 | 0.00 | 0.00 | 0.00 | 83 | 1025.9 |
| 20260905220631 | 56 | 332 | 0.0 | 1.0 | 0.00 | 0.00 | 0.00 | 83 | 1025.9 |
| 20260905220131 | 56 | 332 | 0.0 | 1.0 | 0.00 | 0.00 | 0.00 | 83 | 1025.9 |
| 20260905215639 | 56 | 332 | 0.0 | 0.0 | 0.00 | 0.00 | 0.00 | 82 | 1025.8 |
| 20260905215134 | 56 | 332 | 0.0 | 0.0 | 0.00 | 0.00 | 0.00 | 82 | 1025.7 |
| 20260905214631 | 56 | 332 | 0.0 | 0.0 | 0.00 | 0.00 | 0.00 | 82 | 1025.7 |
| 20260905214127 | 56 | 332 | 0.0 | 1.0 | 0.00 | 0.00 | 0.00 | 82 | 1025.6 |
| 20260905213613 | 56 | 332 | 0.0 | 1.0 | 0.00 | 0.00 | 0.00 | 81 | 1025.6 |
| 20260905213115 | 57 | 332 | 0.0 | 1.0 | 0.00 | 0.00 | 0.00 | 81 | 1025.6 |
| 20260905212605 | 57 | 332 | 0.0 | 0.0 | 0.00 | 0.00 | 0.00 | 81 | 1025.6 |
| 20260905212113 | 57 | 332 | 0.0 | 1.0 | 0.00 | 0.00 | 0.00 | 81 | 1025.6 |
| 20260905211614 | 57 | 332 | 0.0 | 1.0 | 0.00 | 0.00 | 0.00 | 80 | 1025.6 |
| 20260905211114 | 57 | 332 | 0.0 | 2.0 | 0.00 | 0.00 | 0.00 | 80 | 1025.5 |
| 20260905210609 | 58 | 332 | 0.0 | 2.0 | 0.00 | 0.00 | 0.00 | 80 | 1025.6 |
| 20260905210437 | 58 | 332 | 0.0 | 0.0 | 0.00 | 0.00 | 0.00 | 80 | 1025.5 |
| 20260905205609 | 58 | 332 | 0.0 | 0.0 | 0.00 | 0.00 | 0.00 | 80 | 1025.5 |
| 20260905205105 | 58 | 332 | 0.0 | 1.0 | 0.00 | 0.00 | 0.00 | 79 | 1025.4 |
| 20260905204619 | 58 | 332 | 0.0 | 1.0 | 0.00 | 0.00 | 0.00 | 79 | 1025.5 |
| 20260905204103 | 59 | 332 | 0.0 | 0.0 | 0.00 | 0.00 | 0.00 | 79 | 1025.4 |
| 20260905203558 | 59 | 332 | 0.0 | 0.0 | 0.00 | 0.00 | 0.00 | 79 | 1025.5 |
| 20260905203040 | 59 | 332 | 0.0 | 0.0 | 0.00 | 0.00 | 0.00 | 78 | 1025.4 |
| 20260905202859 | 59 | 332 | 0.0 | 0.0 | 0.00 | 0.00 | 0.00 | 78 | 1025.4 |
| 20260905202412 | 60 | 332 | 0.0 | 0.0 | 0.00 | 0.00 | 0.00 | 77 | 1025.4 |
| 20260905201534 | 60 | 332 | 0.0 | 0.0 | 0.00 | 0.00 | 0.00 | 77 | 1025.3 |
| 20260905201031 | 60 | 332 | 0.0 | 0.0 | 0.00 | 0.00 | 0.00 | 77 | 1025.4 |
| 20260905200536 | 60 | 332 | 0.0 | 0.0 | 0.00 | 0.00 | 0.00 | 76 | 1025.4 |
| 20260905200206 | 60 | 332 | 0.0 | 0.0 | 0.00 | 0.00 | 0.00 | 76 | 1025.3 |
| 20260905195546 | 60 | 332 | 0.0 | 0.0 | 0.00 | 0.00 | 0.00 | 76 | 1025.3 |
| 20260905195347 | 61 | 332 | 0.0 | 0.0 | 0.00 | 0.00 | 0.00 | 75 | 1025.3 |